User: anonymous   Login
Location: Trois-Rivi�res
(46.3500°N, 72.5500°W)
Time: 17:09:43
(UTC-04:00)
Language:

Cosmos 1544 - Orbit

View from above orbital plane
View from above orbital plane
View from above satellite
View from above satellite

Ground track
Ground track

The orbit data is extracted from the following two-line orbital elements,

1 14819U 84027A   17295.04054364  .00001961  00000-0  74415-4 0  9996
2 14819  82.4827 260.2408 0013026 320.1646  39.8634 15.26174736835159
Epoch (UTC): 22 October 2017 00:58:22
Eccentricity: 0.0013026
inclination: 82.4827°
perigee height: 478 km
apogee height: 496 km
right ascension of ascending node: 260.2408°
argument of perigee: 320.1646°
revolutions per day: 15.26174736
mean anomaly at epoch: 39.8634°
orbit number at epoch: 83515

The dashed part of the orbit path shows where the satellite is in the earth's shadow,  

DLR